Wind_Speed
30 29 28 28 28 28 27 26 25 25 25 25 25 25 24 22 21 20 20 21 22 22 23 23 23 24 24 25 26 27 28 30 31 31 31 32 32 33 35 37 39 41 43 44 45 46 47 47 48 48 48 48 48 48 48 49 49 48 48 48 49 49 49
29 29 29 29 29 29 28 27 26 25 25 24 23 22 22 21 20 20 20 21 21 22 23 23 24 25 25 26 26 27 27 28 28 29 30 31 31 31 32 32 33 35 36 37 39 40 42 43 44 45 46 46 47 47 48 48 48 48 48 48 48 49 49
28 28 29 28 28 28 28 27 25 24 22 22 21 20 20 21 21 21 21 21 22 22 23 24 25 26 26 27 28 28 29 29 29 29 29 29 30 30 31 31 31 31 31 31 32 33 34 35 37 38 39 40 41 42 43 45 46 46 47 47 47 48 48
28 26 27 27 26 26 26 25 24 22 21 21 21 21 21 21 21 22 22 22 23 23 24 25 25 26 27 28 28 29 30 30 31 31 30 30 30 30 30 30 31 31 30 30 30 30 30 30 31 32 32 33 33 34 35 37 39 41 42 43 44 44 45
28 27 26 25 23 23 23 22 21 21 20 20 21 21 21 22 22 23 24 24 25 25 26 26 27 27 27 28 29 29 30 31 31 32 32 32 32 32 31 31 31 31 31 31 31 31 30 30 30 31 30 30 30 30 31 31 32 33 35 36 37 38 39
26 27 26 25 24 23 21 21 20 20 20 21 21 21 22 22 23 24 25 26 26 27 28 28 28 29 29 29 29 30 30 30 31 32 33 33 34 34 34 33 33 33 33 33 33 33 33 32 32 32 32 32 31 31 31 31 31 31 31 31 32 33 33
25 26 26 26 26 25 24 22 21 21 20 21 22 22 23 23 24 25 25 26 27 28 28 29 29 29 29 30 30 30 30 30 31 31 32 33 34 35 35 35 35 35 35 35 35 35 35 35 35 34 34 34 34 34 34 34 33 33 33 33 33 33 33
26 26 26 26 26 26 26 25 25 23 22 22 23 23 24 25 25 25 26 27 27 28 28 29 29 29 29 29 30 31 31 31 32 32 32 33 33 34 35 36 37 37 37 37 37 37 37 37 37 37 36 36 36 36 36 36 35 35 35 35 35 35 35
26 27 27 27 27 27 27 27 28 28 27 26 25 25 26 26 27 27 27 27 28 28 28 29 29 29 29 30 30 30 31 31 32 32 33 33 34 34 35 36 37 38 38 38 38 38 38 38 38 38 38 38 38 38 37 37 37 37 36 36 36 37 37
26 26 26 27 27 27 28 29 30 31 31 30 28 27 28 28 28 28 28 28 29 29 29 29 29 30 30 30 30 31 31 31 31 32 32 33 33 34 35 36 37 38 39 39 40 40 40 39 39 39 39 39 39 39 39 38 38 38 38 37 37 37 38
27 27 27 27 28 28 29 30 31 33 34 34 30 29 29 29 29 29 29 29 29 29 29 29 30 30 30 31 32 32 32 32 32 32 32 32 32 33 33 34 35 36 38 39 40 41 41 41 41 41 41 41 41 41 41 40 40 39 39 38 38 38 39
28 29 29 30 30 30 31 31 32 33 36 37 34 30 29 29 30 30 30 30 30 30 30 30 30 31 32 32 33 33 34 34 34 33 33 33 34 34 34 34 35 36 36 37 38 39 40 41 41 41 42 42 42 42 43 43 43 42 42 41 40 40 40
31 31 31 32 32 33 33 33 33 34 36 39 38 33 30 30 31 31 32 32 32 32 32 32 32 33 34 35 35 36 36 37 37 37 37 37 37 37 37 37 38 38 38 39 39 39 40 41 41 42 42 42 43 43 43 44 44 44 44 44 44 44 43
32 33 33 33 34 34 35 35 35 36 37 39 40 37 34 33 33 34 35 35 35 35 36 36 36 36 37 37 38 39 40 40 41 40 40 40 41 41 41 41 41 42 42 42 42 42 43 43 43 44 45 45 45 45 45 46 46 46 46 46 46 46 46
34 35 35 35 35 36 37 37 38 38 39 41 42 41 39 38 37 37 38 39 39 39 39 39 40 40 40 40 41 42 43 44 44 44 43 44 44 45 45 45 45 45 45 46 46 46 46 46 46 47 48 48 48 48 48 48 49 49 49 49 49 49 49
38 38 38 38 38 38 39 39 40 40 41 43 45 45 44 42 41 40 41 41 42 42 43 43 43 43 43 43 44 45 45 46 47 47 46 46 47 48 48 48 48 48 48 49 49 48 49 49 49 50 51 51 51 51 51 51 51 52 52 52 52 52 52
41 41 41 40 40 40 40 40 41 42 42 43 45 47 47 46 45 43 43 44 44 45 46 46 46 46 46 46 46 47 48 49 50 50 50 49 49 50 50 51 50 51 51 51 51 52 52 52 52 52 52 53 54 54 54 53 54 54 55 55 55 55 55
43 43 43 43 43 42 42 42 42 43 43 44 46 48 50 50 48 46 46 47 47 48 48 49 49 50 50 50 49 50 50 51 52 53 53 53 53 52 53 53 53 53 54 54 55 55 55 55 55 55 55 55 56 56 56 57 56 56 57 57 57 58 58
45 46 46 46 46 45 45 45 44 44 45 45 46 48 51 52 51 50 50 50 49 50 50 51 51 52 52 53 52 52 52 53 55 56 57 57 57 56 55 55 55 55 56 57 57 58 58 58 58 59 59 58 59 59 60 60 60 60 60 60 60 60 61
46 47 47 47 48 48 47 47 46 45 46 46 46 48 50 52 53 52 52 52 52 51 51 52 52 52 53 53 54 53 53 53 55 58 60 60 59 59 58 57 57 57 58 58 58 59 59 60 60 60 61 61 61 61 62 63 63 64 64 64 64 64 64
47 47 47 47 47 47 47 47 46 46 46 46 46 47 49 51 52 53 54 54 53 52 52 52 51 51 52 52 53 53 53 53 55 58 60 59 60 61 60 59 59 58 59 59 58 58 58 59 59 59 60 61 61 62 62 63 64 65 66 66 67 67 68
46 45 45 46 46 46 46 46 45 45 44 44 45 46 47 49 50 51 52 53 53 52 52 51 51 50 50 50 51 51 52 53 54 56 58 59 60 61 61 60 59 59 58 58 58 58 58 57 58 58 58 59 60 61 61 62 63 64 65 66 67 68 69
43 43 43 43 43 44 44 44 44 44 43 43 43 44 45 46 47 48 49 50 51 51 51 50 49 49 48 48 48 49 50 51 52 53 54 56 58 58 58 59 59 59 58 58 57 57 57 57 57 57 57 58 59 59 60 60 61 62 63 65 66 67 68
41 41 41 41 41 41 42 42 42 42 42 42 42 42 43 44 44 45 46 47 48 49 49 48 47 47 47 47 47 47 47 48 49 50 50 51 52 54 55 56 56 57 57 57 56 56 56 56 56 56 56 57 57 58 58 59 59 60 61 63 64 65 66
37 38 38 38 39 39 39 40 40 41 41 42 41 41 42 42 43 44 45 46 46 47 47 47 46 46 46 46 47 47 46 46 46 47 47 48 49 49 50 51 53 54 54 54 55 55 55 54 54 54 55 55 55 56 56 57 58 58 59 60 61 63 64
36 36 36 37 37 36 36 37 38 39 40 40 40 40 40 41 41 42 42 43 44 45 45 45 44 44 45 46 46 46 45 45 45 45 45 46 47 47 47 48 49 51 51 52 53 53 53 53 52 52 52 53 53 53 54 55 55 56 56 57 58 60 61
37 36 36 36 35 35 35 34 35 37 37 38 38 39 39 39 39 40 40 41 42 42 42 42 42 43 44 44 44 44 44 44 43 43 44 44 45 45 45 46 46 47 48 49 50 50 50 50 50 50 50 51 51 51 52 53 53 53 54 55 55 56 57
37 37 37 36 35 35 34 33 34 35 36 36 37 37 38 38 38 39 39 40 41 41 41 41 41 42 42 42 42 43 43 43 43 43 42 42 43 43 43 43 44 44 45 46 47 47 48 48 48 49 49 49 49 49 50 51 51 51 52 52 53 54 54
37 37 37 37 36 35 35 34 34 34 35 36 37 37 38 38 38 39 39 40 40 41 40 40 41 41 41 42 42 42 42 42 42 42 42 42 42 42 41 41 42 42 43 43 44 45 45 46 46 46 47 47 47 47 48 48 49 49 50 50 50 51 52
38 38 38 38 37 37 36 36 35 35 35 36 37 37 38 38 38 39 39 39 40 40 40 40 40 40 40 41 41 41 41 41 42 41 41 41 41 41 41 41 41 41 41 42 42 42 43 44 44 44 44 45 45 45 45 45 46 47 47 47 48 49 49
39 39 39 40 39 38 38 37 37 36 36 36 37 37 38 38 38 38 38 39 39 40 40 40 39 39 39 39 40 40 39 40 40 40 40 40 40 40 40 40 40 40 40 40 40 41 41 42 42 42 42 42 43 43 43 43 43 44 44 45 46 46 47
40 40 40 40 40 40 39 38 38 37 37 37 37 37 38 38 37 37 37 38 39 39 39 39 39 38 38 38 39 39 38 38 38 39 39 39 38 39 39 39 39 39 39 39 39 39 39 40 40 41 41 41 41 41 41 41 41 41 42 43 44 44 45
40 40 40 39 39 40 39 38 37 37 37 37 37 37 37 37 36 36 36 37 38 38 38 38 38 37 37 37 38 38 37 37 37 37 37 37 37 37 38 38 38 38 38 38 38 38 38 38 39 39 40 39 39 39 39 39 38 39 39 41 41 42 43
39 40 40 39 39 39 39 38 37 37 37 36 36 36 37 36 36 35 35 36 37 37 37 37 37 36 36 36 37 37 37 37 37 37 37 37 37 37 37 37 37 37 37 37 37 38 37 37 38 38 38 38 38 38 37 37 37 37 37 38 39 40 40
35 38 39 39 39 39 38 37 36 36 36 36 36 36 36 36 35 34 34 35 35 36 36 36 35 35 35 36 36 36 36 36 36 36 36 36 36 36 36 36 36 36 36 36 36 37 37 37 37 37 37 37 37 36 36 36 36 36 36 36 36 37 37
33 34 36 38 39 39 37 36 36 35 35 35 36 36 36 35 34 34 34 34 34 35 35 35 35 35 35 35 35 35 36 36 36 36 36 36 36 35 35 36 36 36 36 36 36 36 36 36 36 36 36 36 36 35 35 35 34 34 35 35 35 35 35
Wind_Direction
241 244 246 246 244 243 245 245 243 243 246 249 253 256 258 260 262 263 263 262 262 262 261 262 263 263 263 263 262 262 261 260 261 262 262 261 259 257 255 254 255 256 257 257 256 256 254 252 252 253 253 254 253 253 253 252 252 251 249 248 248 247 246
238 240 240 239 238 240 241 242 241 242 244 246 250 253 256 258 259 260 260 261 262 262 262 262 263 263 263 264 263 263 264 264 262 261 260 260 259 259 257 256 255 255 256 256 256 256 255 253 252 251 251 252 252 252 252 252 251 251 251 250 249 248 247
240 238 237 235 235 237 239 238 239 239 241 243 246 249 253 257 258 259 260 260 260 260 261 262 262 262 262 262 263 263 263 264 265 264 262 260 259 258 258 257 256 255 254 255 255 255 255 255 254 252 251 250 250 251 251 252 252 252 252 251 249 248 248
245 243 241 238 237 236 236 236 237 239 242 244 246 250 254 257 260 261 261 261 261 261 261 261 261 261 261 261 262 261 261 261 262 263 263 262 260 259 258 257 256 256 255 254 254 253 252 252 253 252 252 251 251 251 250 251 251 251 251 250 249 249 248
249 249 248 247 244 240 238 238 240 243 247 250 252 254 257 259 261 262 262 263 264 264 263 263 263 262 261 260 260 260 259 258 258 259 259 260 260 260 259 258 257 257 256 256 256 255 254 253 252 251 251 251 252 252 252 251 251 250 250 250 249 249 248
253 252 251 252 253 253 251 248 247 248 251 254 256 257 259 260 261 263 264 264 265 266 266 266 264 263 261 259 259 258 257 256 255 255 256 256 257 258 259 259 258 257 257 256 256 257 257 257 256 254 254 254 254 254 254 255 255 254 252 252 251 251 250
259 257 256 256 257 260 262 261 258 255 254 256 259 260 261 261 262 263 265 265 265 265 265 265 264 263 261 259 258 257 256 255 254 254 254 254 255 256 257 258 259 258 258 257 257 257 257 257 257 257 256 256 256 256 256 256 257 258 257 256 255 254 253
261 259 259 259 260 263 266 268 267 265 263 261 262 263 263 264 265 265 265 265 264 264 263 263 263 262 260 259 258 257 257 257 256 255 254 254 254 254 255 256 257 258 258 258 258 258 258 257 257 257 257 257 256 256 257 257 257 258 258 258 259 258 256
261 260 259 259 261 262 265 268 270 271 270 267 264 264 264 265 266 266 266 266 265 265 264 264 264 263 262 261 259 259 258 258 258 257 256 255 255 254 255 255 256 257 258 259 260 259 259 259 259 258 258 257 257 256 256 256 257 257 257 257 258 259 258
264 263 263 262 263 264 265 267 268 269 269 267 264 263 263 263 264 265 265 266 266 266 267 267 267 267 266 265 263 262 261 260 259 259 258 258 257 256 255 255 256 256 257 259 260 261 261 261 260 260 260 259 259 258 257 257 257 256 257 257 257 258 259
272 272 272 272 272 271 271 271 271 270 269 266 264 263 263 263 264 265 265 265 265 266 267 268 269 269 269 268 268 266 265 264 262 261 261 260 259 258 258 257 257 257 257 258 259 260 261 262 262 261 261 261 261 261 260 260 259 258 258 258 258 258 259
277 278 278 278 278 277 277 276 276 275 273 270 267 265 266 266 266 267 267 267 268 267 268 268 268 269 270 270 270 269 269 268 267 266 265 264 263 262 261 260 259 259 259 259 259 260 260 261 262 262 262 262 262 262 262 262 262 261 261 260 260 260 259
278 278 278 279 278 278 278 278 277 277 276 273 270 268 269 270 270 270 270 271 272 271 271 271 270 270 270 270 270 270 270 270 269 269 269 267 267 266 265 264 263 262 262 261 261 261 261 261 262 263 263 263 263 263 263 262 262 262 262 262 261 261 261
277 277 277 278 278 278 279 279 279 279 278 276 273 270 272 274 274 274 273 274 274 274 273 273 272 272 271 271 271 271 271 271 270 270 270 270 269 268 267 267 266 265 265 264 264 263 263 263 263 263 263 263 263 262 262 262 262 262 262 262 262 262 262
278 278 278 278 278 278 279 279 280 280 280 279 277 275 276 277 278 277 277 276 276 275 275 274 273 273 273 272 272 272 272 272 271 271 271 271 271 270 270 269 268 268 267 266 266 265 265 264 264 264 264 263 263 262 262 263 263 263 263 263 263 263 262
281 281 280 280 280 280 280 280 280 280 281 281 280 279 279 279 279 279 279 279 278 277 276 275 274 274 273 273 273 272 272 272 272 271 271 270 270 270 271 270 270 269 269 268 268 267 266 265 265 265 265 265 264 264 263 263 263 263 263 263 263 263 263
285 284 283 283 282 282 281 281 281 281 281 281 281 280 280 280 280 280 280 279 279 278 277 276 276 275 274 274 273 272 272 272 271 271 270 270 270 270 270 270 270 270 270 270 269 269 268 267 266 266 266 266 266 266 265 264 264 264 264 264 264 264 263
287 286 286 285 285 284 283 283 282 282 281 281 281 281 280 280 280 280 280 279 278 278 277 277 276 276 275 275 274 274 273 272 272 271 271 270 269 269 269 269 269 269 269 269 269 269 269 268 268 267 267 266 266 266 266 266 265 265 265 264 264 264 264
287 287 287 286 285 285 284 284 283 282 282 281 281 281 281 281 281 280 280 279 278 277 277 277 277 276 276 275 275 274 274 273 273 272 272 271 271 270 269 269 269 268 268 268 268 268 268 268 268 267 267 266 266 266 266 266 266 266 265 265 265 264 264
286 285 285 285 284 284 284 283 283 283 282 281 281 280 280 281 281 280 279 279 278 277 276 276 276 276 276 275 275 275 274 274 273 272 272 272 272 271 270 270 269 268 267 267 267 267 267 267 267 267 267 266 266 266 266 266 266 266 266 266 265 265 264
285 284 284 283 283 283 282 282 282 281 281 281 280 279 279 279 279 279 279 278 278 277 277 276 275 275 275 274 274 274 274 273 273 273 272 272 272 271 271 270 269 269 269 268 267 267 266 266 266 267 267 267 266 266 265 265 265 265 265 265 265 265 265
284 284 283 283 283 283 282 282 281 280 280 279 279 279 278 278 278 278 278 278 278 277 277 276 276 275 274 273 273 273 273 272 272 272 272 271 271 271 271 271 271 270 270 269 269 268 267 267 266 266 266 266 266 266 265 265 265 265 264 264 264 264 264
284 284 284 284 284 284 283 283 282 281 280 280 279 279 278 278 278 278 277 277 277 277 277 277 277 276 275 274 273 272 272 272 271 271 271 270 271 271 272 272 272 272 271 270 270 269 268 267 267 266 266 265 265 265 265 264 264 264 264 264 264 264 264
285 285 285 285 285 285 284 284 284 283 282 281 280 280 279 279 279 278 278 277 277 277 277 277 277 277 276 275 274 273 272 271 271 271 271 271 271 271 271 271 271 271 271 271 270 269 268 268 267 266 266 265 265 264 264 264 263 263 263 263 264 264 264
286 286 285 285 284 284 284 284 284 284 283 282 282 281 280 280 279 279 279 278 278 278 278 278 278 277 276 275 274 273 273 272 272 271 271 271 270 270 270 270 269 270 270 270 269 269 268 268 267 267 266 266 265 265 264 264 263 263 263 263 263 263 263
289 287 286 285 285 284 284 284 283 282 282 282 282 281 281 280 279 278 278 278 278 277 278 278 278 277 276 275 275 275 274 273 273 272 271 270 269 269 268 268 268 268 269 268 269 269 269 269 268 267 267 266 266 265 265 264 264 263 263 263 262 262 262
291 290 289 288 287 286 285 284 283 283 282 282 282 282 281 280 280 279 278 278 278 278 278 278 277 277 276 276 276 276 275 274 273 272 271 270 270 269 269 268 268 268 268 268 269 269 269 269 269 268 268 267 266 266 265 265 264 264 263 263 263 263 263
291 291 290 289 289 288 287 286 285 284 284 284 284 283 283 283 282 281 281 280 280 280 280 279 279 278 278 278 277 277 276 276 275 274 273 273 272 272 271 270 270 269 269 269 269 269 269 269 269 268 268 267 267 267 266 266 265 264 264 264 264 264 264
292 291 291 290 289 288 287 286 285 284 284 284 283 283 283 282 282 282 282 282 281 281 281 280 280 280 280 279 279 278 278 278 278 277 277 276 275 274 273 272 272 271 270 270 269 269 269 269 268 268 268 267 267 266 266 266 266 265 265 264 264 264 264
292 292 291 290 289 289 288 287 285 284 284 283 283 282 282 281 281 281 280 280 280 280 280 280 280 280 280 279 279 279 279 278 278 279 278 278 277 277 275 274 273 272 272 271 271 270 270 269 269 268 268 267 267 266 266 266 265 265 265 265 264 264 264
293 292 291 290 290 289 289 288 287 286 285 283 283 282 282 281 281 280 280 280 279 279 279 279 279 279 279 279 278 278 278 277 277 277 277 277 277 277 276 276 275 274 273 273 272 271 271 270 270 269 269 268 268 267 266 266 265 265 265 264 264 264 263
292 292 291 291 291 290 289 289 289 288 287 285 284 283 282 282 282 281 281 280 280 280 280 280 280 280 279 279 279 278 278 277 277 276 276 276 276 276 276 276 275 275 274 274 273 272 272 271 271 271 270 270 269 269 268 267 267 266 266 265 265 264 264
293 292 291 291 291 290 290 290 289 288 288 287 285 284 283 283 282 282 282 281 280 280 280 280 280 280 280 279 279 278 278 278 277 276 275 275 275 275 275 275 275 274 274 273 273 273 272 272 272 271 271 271 271 270 270 269 268 267 267 267 266 266 266
293 293 292 292 291 290 290 290 290 289 289 288 287 285 284 284 283 283 282 281 281 281 280 280 280 280 280 279 279 278 278 277 276 275 275 274 274 273 273 273 273 273 272 272 272 272 272 272 271 271 271 271 271 271 271 271 270 269 268 268 267 267 267
291 292 292 292 291 290 290 291 291 290 290 289 288 287 286 285 285 284 283 282 282 281 281 281 280 280 280 279 278 278 277 276 276 275 274 273 273 273 272 272 272 272 271 271 271 271 271 271 271 271 271 271 271 271 271 271 271 271 270 269 269 269 269
291 290 291 291 291 290 291 291 291 291 290 289 288 287 287 286 285 284 283 283 282 281 281 281 280 279 278 278 277 277 277 276 276 275 274 274 273 272 272 272 271 270 270 270 270 270 270 270 271 271 271 271 271 271 271 271 271 271 271 271 271 270 270
Height
2974 2973 2972 2972 2972 2971 2971 2971 2971 2971 2970 2970 2970 2970 2971 2971 2971 2972 2972 2973 2973 2973 2973 2974 2974 2975 2975 2975 2975 2975 2976 2976 2976 2976 2976 2976 2977 2977 2977 2977 2977 2977 2977 2978 2979 2979 2980 2981 2981 2982 2983 2984 2985 2986 2987 2988 2989 2990 2991 2991 2992 2993 2995
2970 2969 2968 2967 2967 2967 2966 2966 2966 2966 2966 2966 2966 2966 2966 2967 2967 2968 2968 2968 2969 2969 2969 2969 2970 2970 2971 2971 2971 2971 2972 2972 2972 2972 2972 2972 2973 2973 2973 2973 2973 2972 2973 2973 2973 2974 2974 2975 2975 2975 2976 2977 2978 2979 2980 2981 2982 2983 2984 2985 2986 2987 2988
2967 2965 2964 2963 2963 2962 2962 2962 2962 2962 2961 2961 2962 2962 2962 2963 2963 2964 2964 2964 2964 2965 2965 2965 2965 2966 2966 2966 2967 2967 2967 2968 2968 2968 2968 2968 2969 2969 2969 2969 2969 2969 2969 2968 2969 2969 2969 2970 2970 2971 2971 2972 2972 2972 2973 2974 2975 2976 2977 2978 2979 2980 2981
2965 2963 2962 2960 2959 2958 2958 2957 2958 2958 2958 2957 2957 2958 2958 2959 2959 2960 2960 2960 2960 2960 2960 2961 2961 2961 2961 2962 2962 2962 2963 2963 2963 2963 2964 2964 2964 2964 2965 2965 2965 2965 2965 2965 2965 2965 2965 2965 2966 2967 2967 2967 2967 2967 2968 2968 2969 2970 2971 2971 2972 2973 2974
2961 2960 2960 2959 2958 2956 2955 2954 2954 2954 2954 2954 2954 2954 2954 2954 2955 2956 2956 2956 2956 2956 2956 2956 2956 2956 2956 2957 2957 2957 2958 2958 2959 2959 2959 2959 2959 2960 2960 2960 2961 2961 2961 2961 2961 2961 2961 2961 2962 2962 2963 2964 2963 2964 2964 2964 2964 2965 2966 2966 2967 2967 2968
2957 2956 2956 2956 2956 2955 2953 2952 2951 2951 2950 2950 2950 2950 2950 2950 2951 2951 2952 2952 2952 2952 2952 2952 2952 2952 2952 2952 2952 2953 2953 2953 2954 2954 2954 2955 2955 2955 2955 2955 2956 2956 2956 2957 2957 2957 2957 2957 2958 2958 2959 2959 2960 2960 2960 2960 2961 2961 2962 2962 2962 2962 2963
2953 2953 2952 2952 2952 2952 2951 2950 2949 2948 2947 2947 2947 2946 2946 2946 2947 2947 2948 2948 2948 2948 2948 2948 2947 2947 2947 2947 2947 2948 2948 2948 2949 2949 2949 2950 2950 2950 2950 2951 2951 2951 2951 2952 2952 2952 2953 2953 2953 2954 2954 2955 2955 2955 2956 2956 2956 2957 2957 2958 2958 2958 2958
2949 2949 2948 2948 2947 2948 2947 2947 2946 2946 2945 2945 2944 2943 2943 2943 2943 2943 2943 2943 2944 2944 2944 2944 2943 2943 2943 2943 2942 2943 2943 2943 2944 2944 2945 2945 2945 2945 2945 2946 2946 2946 2946 2946 2946 2947 2947 2948 2948 2949 2949 2950 2950 2950 2951 2952 2952 2952 2952 2953 2953 2953 2954
2946 2945 2945 2944 2943 2943 2942 2942 2941 2941 2942 2942 2941 2940 2939 2939 2939 2939 2939 2939 2939 2939 2939 2939 2939 2938 2938 2938 2938 2938 2938 2938 2938 2939 2939 2940 2940 2940 2941 2941 2941 2941 2941 2941 2941 2941 2942 2943 2943 2943 2944 2945 2945 2945 2946 2947 2947 2947 2948 2948 2948 2948 2949
2942 2941 2941 2940 2939 2938 2938 2937 2936 2936 2936 2938 2937 2936 2936 2936 2935 2935 2935 2934 2934 2933 2933 2933 2933 2933 2933 2933 2933 2933 2933 2933 2933 2934 2934 2934 2935 2935 2936 2936 2936 2936 2936 2936 2936 2936 2937 2937 2937 2938 2939 2939 2939 2940 2941 2941 2942 2942 2943 2943 2943 2943 2943
2939 2938 2937 2936 2935 2934 2933 2932 2932 2930 2930 2931 2932 2932 2931 2931 2931 2931 2930 2930 2929 2929 2928 2928 2928 2928 2927 2927 2928 2928 2928 2928 2928 2929 2929 2929 2930 2930 2931 2931 2931 2931 2931 2932 2931 2931 2932 2932 2932 2933 2933 2933 2934 2934 2935 2936 2936 2937 2937 2938 2938 2938 2938
2935 2934 2933 2932 2931 2931 2930 2929 2928 2926 2924 2923 2925 2927 2927 2926 2926 2926 2926 2925 2925 2924 2924 2924 2923 2923 2922 2922 2922 2922 2923 2923 2923 2924 2924 2924 2924 2925 2925 2926 2926 2926 2926 2926 2927 2927 2927 2927 2927 2927 2928 2928 2928 2929 2929 2930 2930 2931 2931 2932 2932 2932 2933
2931 2931 2930 2928 2927 2926 2926 2925 2923 2922 2920 2918 2918 2920 2922 2922 2921 2921 2921 2920 2920 2919 2919 2918 2918 2918 2917 2917 2916 2917 2917 2917 2918 2918 2918 2918 2919 2919 2919 2920 2920 2920 2920 2921 2921 2921 2921 2922 2922 2922 2922 2922 2923 2923 2923 2923 2924 2924 2925 2925 2926 2926 2927
2927 2926 2925 2925 2923 2922 2921 2920 2919 2918 2916 2913 2912 2913 2915 2916 2916 2915 2915 2915 2914 2914 2913 2913 2912 2912 2912 2911 2911 2911 2911 2911 2911 2912 2913 2913 2913 2913 2913 2913 2914 2914 2914 2914 2915 2915 2916 2916 2916 2916 2916 2917 2917 2917 2917 2917 2918 2918 2918 2919 2919 2920 2921
2922 2921 2921 2920 2919 2918 2916 2915 2914 2913 2911 2909 2907 2906 2908 2910 2910 2909 2909 2908 2908 2908 2907 2907 2907 2906 2906 2905 2905 2904 2904 2904 2904 2905 2906 2906 2906 2906 2906 2907 2907 2907 2907 2907 2908 2909 2909 2909 2909 2909 2909 2910 2910 2911 2911 2912 2912 2912 2912 2912 2913 2913 2914
2916 2915 2915 2914 2913 2912 2911 2909 2908 2907 2906 2904 2901 2900 2901 2902 2903 2903 2902 2902 2901 2901 2901 2900 2900 2900 2900 2899 2899 2898 2897 2897 2897 2898 2899 2899 2899 2899 2899 2899 2899 2899 2900 2900 2901 2901 2901 2901 2902 2902 2902 2902 2903 2904 2905 2905 2905 2905 2905 2905 2906 2906 2907
2909 2908 2908 2907 2907 2906 2905 2903 2902 2900 2899 2898 2896 2894 2894 2894 2896 2896 2896 2895 2894 2894 2894 2893 2893 2892 2892 2892 2892 2891 2891 2890 2889 2890 2891 2891 2891 2892 2891 2891 2892 2892 2892 2892 2893 2893 2893 2893 2894 2894 2895 2895 2895 2895 2897 2897 2898 2898 2898 2898 2899 2899 2900
2902 2901 2900 2900 2899 2898 2898 2897 2895 2894 2892 2891 2889 2888 2886 2887 2888 2888 2888 2888 2888 2887 2886 2886 2885 2885 2884 2884 2884 2883 2883 2882 2882 2882 2882 2883 2883 2884 2883 2884 2885 2885 2884 2884 2884 2884 2884 2885 2885 2886 2887 2887 2887 2887 2888 2888 2889 2890 2890 2890 2891 2891 2892
2895 2894 2893 2892 2891 2890 2890 2889 2888 2887 2885 2884 2883 2881 2879 2879 2880 2880 2879 2879 2879 2879 2879 2878 2877 2877 2876 2876 2875 2875 2874 2874 2873 2873 2873 2873 2874 2875 2875 2875 2877 2876 2876 2876 2876 2875 2876 2876 2876 2877 2877 2878 2879 2879 2879 2879 2880 2881 2881 2882 2882 2883 2883
2889 2887 2886 2885 2883 2882 2882 2881 2880 2879 2878 2877 2876 2874 2873 2872 2871 2871 2871 2871 2871 2871 2870 2870 2869 2869 2868 2867 2867 2866 2866 2865 2864 2864 2864 2864 2864 2864 2865 2866 2867 2866 2867 2868 2867 2867 2867 2867 2867 2867 2868 2869 2870 2870 2870 2870 2870 2871 2872 2872 2873 2873 2874
2881 2880 2879 2877 2876 2875 2874 2873 2873 2872 2870 2869 2868 2867 2866 2865 2864 2863 2862 2862 2862 2862 2861 2862 2862 2861 2860 2859 2859 2858 2858 2857 2855 2855 2856 2855 2854 2854 2855 2856 2856 2856 2857 2858 2858 2858 2859 2858 2858 2858 2859 2859 2860 2860 2861 2861 2861 2861 2862 2861 2862 2863 2863
2873 2872 2871 2870 2868 2867 2866 2865 2865 2864 2863 2862 2861 2860 2859 2858 2858 2856 2855 2854 2854 2853 2853 2853 2853 2853 2852 2852 2851 2850 2849 2849 2848 2848 2847 2846 2844 2845 2846 2846 2846 2847 2848 2848 2848 2849 2850 2850 2850 2850 2850 2850 2850 2850 2851 2851 2851 2851 2851 2851 2852 2852 2852
2866 2865 2864 2863 2861 2860 2858 2857 2856 2856 2855 2855 2854 2853 2852 2851 2851 2850 2848 2847 2846 2845 2845 2845 2844 2844 2844 2843 2843 2843 2842 2841 2840 2840 2839 2838 2837 2837 2837 2837 2837 2837 2837 2838 2839 2839 2840 2840 2840 2841 2841 2841 2841 2841 2841 2841 2842 2842 2841 2841 2842 2841 2841
2859 2858 2857 2856 2855 2853 2851 2850 2849 2848 2847 2847 2847 2846 2845 2844 2843 2842 2841 2840 2839 2838 2837 2837 2836 2836 2835 2835 2835 2834 2834 2834 2833 2832 2831 2831 2830 2830 2830 2829 2829 2828 2828 2829 2829 2829 2830 2830 2830 2831 2831 2831 2832 2832 2832 2832 2832 2832 2832 2832 2832 2832 2832
2854 2852 2851 2850 2849 2848 2846 2844 2843 2841 2840 2840 2840 2839 2838 2837 2836 2835 2834 2833 2832 2830 2830 2829 2829 2828 2827 2827 2826 2826 2826 2826 2826 2825 2824 2824 2823 2823 2822 2822 2821 2820 2820 2820 2820 2820 2821 2821 2821 2822 2822 2822 2823 2823 2823 2823 2823 2824 2823 2823 2823 2823 2823
2847 2846 2845 2844 2843 2842 2841 2839 2837 2836 2834 2834 2833 2832 2831 2830 2830 2829 2827 2826 2825 2824 2823 2822 2821 2821 2820 2819 2819 2819 2819 2818 2818 2818 2817 2816 2816 2815 2815 2815 2814 2813 2812 2812 2812 2812 2812 2813 2813 2813 2814 2814 2814 2814 2814 2814 2814 2815 2815 2814 2814 2815 2814
2841 2839 2838 2838 2837 2836 2835 2834 2832 2830 2829 2828 2826 2825 2824 2824 2823 2822 2821 2820 2818 2817 2817 2816 2815 2814 2813 2812 2812 2811 2811 2811 2810 2810 2809 2809 2808 2808 2808 2807 2807 2806 2805 2805 2805 2804 2804 2804 2804 2805 2805 2805 2805 2805 2805 2805 2806 2806 2806 2806 2806 2806 2806
2835 2833 2832 2831 2831 2830 2829 2828 2826 2824 2823 2821 2820 2819 2818 2817 2816 2814 2814 2812 2811 2810 2810 2808 2807 2806 2806 2805 2805 2804 2803 2803 2802 2802 2801 2801 2800 2800 2800 2800 2799 2799 2798 2797 2797 2797 2796 2797 2797 2797 2797 2797 2797 2797 2797 2797 2798 2798 2798 2798 2798 2798 2798
2829 2827 2826 2825 2824 2824 2823 2822 2821 2819 2818 2816 2814 2813 2812 2811 2809 2808 2807 2805 2804 2803 2802 2801 2800 2799 2799 2798 2797 2797 2796 2795 2794 2794 2793 2793 2793 2792 2792 2792 2792 2791 2791 2790 2790 2790 2789 2789 2789 2789 2789 2789 2789 2790 2789 2789 2790 2790 2790 2790 2790 2790 2790
2823 2821 2820 2819 2818 2818 2817 2816 2815 2814 2813 2811 2809 2808 2806 2805 2804 2802 2801 2800 2798 2797 2796 2795 2794 2793 2792 2791 2790 2790 2789 2788 2788 2787 2786 2786 2785 2785 2785 2785 2784 2784 2784 2783 2783 2783 2782 2782 2782 2782 2782 2782 2782 2782 2782 2782 2782 2782 2782 2783 2783 2782 2782
2816 2815 2814 2812 2812 2811 2810 2809 2808 2808 2807 2805 2804 2802 2800 2799 2798 2797 2795 2794 2792 2791 2790 2789 2788 2787 2786 2785 2784 2784 2783 2782 2782 2781 2780 2779 2779 2778 2778 2777 2777 2777 2777 2776 2776 2776 2775 2775 2775 2774 2774 2774 2774 2774 2775 2775 2775 2775 2775 2775 2775 2775 2775
2811 2809 2808 2806 2805 2804 2803 2803 2802 2801 2800 2798 2797 2795 2794 2793 2792 2790 2789 2787 2786 2785 2784 2783 2782 2781 2780 2779 2778 2777 2777 2776 2776 2775 2774 2774 2773 2772 2771 2771 2770 2770 2770 2770 2769 2769 2769 2768 2768 2768 2767 2767 2767 2767 2768 2768 2768 2768 2768 2767 2767 2768 2767
2804 2803 2802 2801 2799 2798 2797 2796 2796 2794 2793 2792 2790 2789 2787 2786 2785 2785 2783 2781 2780 2779 2778 2777 2776 2775 2774 2773 2772 2771 2771 2770 2769 2769 2768 2768 2767 2766 2765 2764 2764 2764 2764 2763 2762 2762 2762 2762 2761 2761 2761 2761 2761 2761 2761 2761 2761 2761 2761 2760 2760 2760 2760
2799 2797 2795 2795 2794 2792 2791 2790 2790 2788 2787 2786 2784 2783 2781 2780 2780 2779 2777 2776 2774 2773 2772 2771 2770 2769 2768 2767 2766 2765 2765 2764 2763 2762 2762 2761 2761 2760 2759 2759 2758 2758 2757 2757 2756 2756 2756 2755 2755 2755 2754 2754 2755 2754 2754 2755 2754 2754 2754 2754 2754 2754 2754
2796 2792 2790 2788 2787 2786 2785 2785 2784 2783 2781 2780 2778 2777 2775 2775 2774 2773 2772 2770 2769 2767 2766 2765 2765 2764 2763 2761 2761 2760 2759 2758 2757 2756 2756 2755 2755 2754 2754 2753 2752 2752 2751 2751 2750 2750 2750 2749 2749 2749 2748 2748 2749 2749 2748 2748 2748 2748 2748 2748 2748 2747 2747
2792 2789 2786 2783 2781 2780 2780 2780 2779 2777 2776 2774 2772 2771 2770 2769 2768 2767 2766 2765 2763 2762 2761 2760 2759 2758 2757 2756 2755 2754 2753 2752 2751 2750 2750 2749 2749 2749 2748 2747 2747 2746 2746 2745 2745 2744 2744 2744 2743 2743 2743 2743 2743 2743 2743 2743 2742 2742 2742 2742 2742 2741 2741